NOAA 6 [P]

Last updated on Mon Oct 12 2020 05:50:52 GMT+0000 (Coordinated Universal Time)

1 11416U 79057A 20285.93494396 .00000029 00000-0 26794-4 0 9998 2 11416 98.6624 284.8767 0009229 268.7606 91.2521 14.33595542153616
UTC large
Height (km)
Speed (km/s)
/
Latitude / Longitude
Inclination (degrees)
Orbital Period (minutes)
Azimuth
Elevation
Range (km)
Doppler Factor

Next 0 passes for location: London (51.5072 / 0.1276)

Sorry there are no passes over London.